CAPE
1499 1363 1138 1193 1029 1031 1264 1223 1114 1174 1166 1110 1108 1274 1416 1616 1745 1827 2013 2000 1880 1823 1860 1872 1708 1479 1357 1239 1199 1174 1021 1045 734 930 976 1208 1466 1580 1637 1757 1498 1506 1460 1274 1337 1212 1379 1314 1426 1292 1216 1190 1345 1221 1176 1078 1060 1078 954 1147 981 859 838 887 831 754 708 568 529 464 529 741 818 829 644 727 900 1223 1260 1355 1308 1240 1251 1155 1279
1655 1496 1487 1273 1275 1187 1226 1369 1441 1355 1253 1161 859 1058 1184 1263 1443 1677 1825 1920 1852 1749 1695 1702 1506 1410 1332 1099 1043 880 916 1196 1245 1210 1672 1863 1660 1616 1445 1576 1506 1298 1142 1087 1055 1194 1306 1198 1013 1104 980 968 1027 1090 962 1418 1238 1189 1021 922 1345 1141 906 799 736 608 571 486 412 521 560 523 618 798 765 693 752 928 1115 1245 1274 1344 1290 1322 1256
1728 1792 1704 1566 1660 1527 1481 1355 1406 1220 1186 1260 1072 1353 1452 1395 1208 1412 1595 1637 1541 1612 1577 1481 1117 940 982 848 804 1188 1213 1295 1558 1281 1304 1246 1371 1367 1444 1362 1128 1142 1011 1207 1111 1276 1385 1096 1078 1136 956 959 962 1018 1115 1118 1413 1280 1167 1047 1026 1011 1003 876 667 566 611 478 630 482 506 478 568 712 741 739 816 858 860 990 1106 1276 1310 1204 1206
1907 1953 2012 1866 1865 1781 1746 1670 1647 1672 1493 1817 1738 1636 1680 1761 1690 1333 1262 1202 1070 953 1434 1315 1549 1199 1337 1485 1413 1498 1455 1351 1423 1455 1187 989 866 987 1084 1369 1096 1117 1078 1262 1219 1306 1295 1140 1068 1224 1187 1082 964 1037 1136 1354 1374 1320 1350 1150 1014 963 875 846 706 591 455 532 672 546 507 447 428 405 430 714 845 1042 847 861 989 1097 1257 1276 1228
1968 2071 2099 2104 2122 2138 2071 2027 1887 1948 1857 1847 1904 1921 1824 1896 1846 1679 1638 1618 1498 1553 1698 1727 1598 1345 1394 1546 1345 1256 1463 1472 1375 1201 1155 1212 1270 1004 1083 1199 1325 1484 1543 1609 1380 1216 974 1023 1066 1158 1213 1158 1097 1157 1247 1212 1288 1296 1476 1304 1125 978 893 907 804 673 631 686 614 552 526 489 436 356 576 892 947 1147 1019 938 1014 1225 1234 1350 1394
2092 2116 2134 2164 2129 2234 2079 2289 2304 2172 2242 2402 2282 2144 2139 1931 1859 1568 1488 1646 1593 1593 1492 1562 1725 1503 1259 1448 1474 1477 1175 1196 1174 1186 1142 1106 1069 1084 1088 1124 1184 1371 1446 1591 1527 1398 948 1099 1118 924 1027 1112 1339 1390 1381 1260 1222 1161 1444 1260 1208 1141 1083 958 942 784 774 774 741 590 489 557 534 669 502 880 661 1511 1575 1340 1335 1336 1360 1395 1485
2091 2059 2089 2119 2096 2025 2196 2302 2308 2230 2286 2382 2266 2362 2298 2036 1916 1985 1824 1660 1744 1526 1694 1721 1392 1327 1460 1380 1274 1141 1072 1128 1141 1226 1248 1290 1168 1098 1082 1095 1033 1232 1372 1454 1662 1625 1544 1245 1219 1217 1226 1107 1226 1294 1346 1372 1308 1362 1560 1172 1155 1134 1058 995 862 888 757 722 832 887 851 785 696 595 798 577 725 846 1324 1560 1782 1672 1616 1527 1509
1996 2086 2060 2009 1999 2120 2099 2222 2213 2102 2212 2220 2078 2013 1876 1842 1688 1663 1640 1506 1628 1526 1590 1464 1521 1279 1421 1262 1249 1156 1174 1145 1240 1242 1339 1415 1337 1171 1103 1056 1094 1242 1372 1431 1549 1623 1475 1304 1354 1288 1279 1283 1232 1223 1339 1391 1586 1587 1352 1252 1138 983 962 911 918 912 774 723 729 777 822 810 733 705 688 647 600 627 715 1430 1846 1816 1816 1800 1717
2010 2070 2069 1924 2021 2022 1983 2025 2005 2004 2015 2021 2031 2068 2022 1929 1840 1852 1871 1933 1876 1778 1794 1833 1859 1734 1638 1537 1406 1358 1269 1296 1262 1237 1188 848 622 618 668 830 971 1025 1055 1142 1232 1368 1465 1462 1359 1146 1166 1360 1380 1330 1573 1671 1510 1384 1345 1201 1210 1088 1064 997 933 845 817 863 867 865 890 900 883 882 862 753 701 694 704 760 812 1508 1735 1804 1874
1996 1991 1962 1954 1981 1978 1973 1903 1878 1904 1924 1922 1998 2024 1998 2016 2110 2074 2138 2275 1958 1896 1838 1916 1965 1901 1709 1648 1447 1376 1235 1091 1088 823 541 477 428 470 508 590 702 802 1056 1215 1260 1332 1385 1383 1313 1294 1457 1400 1361 1442 1621 1598 1504 1317 1142 1053 1105 1167 1117 1068 996 959 932 955 904 920 994 952 900 900 897 854 759 753 793 944 926 841 928 1434 2137
1888 2025 1884 1952 1852 1946 1849 1889 1944 1984 1917 1925 1966 2063 1947 1876 1786 1210 1128 1270 1674 1837 1868 1907 1858 1912 1850 1724 1520 1300 1173 938 849 363 214 190 228 272 308 381 366 430 646 943 1118 1401 1444 1448 1438 1356 1460 1697 1795 1342 1534 1540 1208 1274 1363 1106 1195 1177 1200 1204 1181 1172 1051 1007 930 971 920 950 865 833 921 927 883 868 850 914 964 873 810 769 1082
1816 1986 1934 1886 1798 1869 1927 1924 2005 1923 1774 1649 1698 1650 1623 1054 344 126 162 358 731 1212 1441 1415 1471 1563 1573 1597 1425 1243 1004 873 739 311 177 178 119 212 184 112 97 143 179 265 324 485 941 1144 1350 1422 1447 1474 1468 1529 1548 1458 1322 1342 1265 1286 1290 1373 1289 1358 1164 1120 1175 1149 1055 983 1020 1011 958 906 904 1061 1002 1001 942 953 944 996 901 909 1032
1781 1926 1972 1849 1779 1806 1908 1931 1916 1692 1350 1375 1326 1212 734 116 67 137 154 90 1 98 629 486 753 828 1132 1042 926 727 607 565 645 196 90 83 99 167 161 127 79 89 97 133 118 140 440 584 855 1180 1396 1464 1548 1570 1541 1511 1372 1120 1082 1222 1483 1410 1357 1262 1291 1410 1358 1240 1166 1088 1068 1116 1069 1017 944 1045 1084 1028 982 928 903 802 792 794 798
1781 1914 1860 1789 1819 1818 1925 1971 1864 1232 1067 962 845 640 258 154 12 180 49 0 24 35 0 2 1 115 540 314 92 439 262 136 66 57 50 38 82 135 128 112 83 73 88 78 80 218 262 337 767 1113 1382 1457 1568 1620 1587 1665 1596 1490 1217 868 987 960 950 1022 918 921 846 1080 1053 1081 1094 1054 1046 1028 938 937 1038 1040 945 891 798 774 863 982 878
1737 1906 1743 1650 1741 1845 1910 1959 1657 1051 860 760 576 511 133 121 53 95 0 0 0 0 0 0 0 10 47 86 161 255 249 94 9 173 129 35 8 56 36 2 20 48 55 100 248 128 152 233 700 1334 1299 1354 1469 1498 1720 1814 1658 1493 1362 1349 1111 950 962 942 939 903 910 1044 989 983 902 967 1078 1080 1063 1050 1078 1140 1044 929 875 927 1020 1060 936
1715 1813 1621 1420 1451 1625 1638 1552 1293 855 747 538 512 205 36 25 8 5 0 0 0 110 0 0 0 1 0 7 26 285 870 111 147 232 23 2 29 43 46 9 28 45 28 113 90 162 188 214 502 613 691 842 1060 1290 1361 1470 1730 1630 1441 1265 1235 1301 1154 990 1196 970 1107 1006 995 951 933 992 1001 971 972 1021 1058 1014 926 847 826 978 1071 992 833
1591 1668 1442 1181 1081 1142 1064 1020 782 719 471 82 100 36 0 0 0 0 0 0 0 18 0 0 0 0 0 0 0 1 0 12 14 1 0 0 35 25 39 48 36 24 46 225 350 205 122 401 405 221 244 341 588 814 952 1088 1181 1416 1523 1515 1349 1432 1396 1370 1035 1029 1032 844 769 983 974 1004 1133 1093 1051 992 964 890 830 846 914 1013 1090 1009 868
1364 1418 1024 743 746 792 718 666 574 501 60 42 142 32 0 0 0 0 0 0 0 13 0 0 48 0 10 27 6 8 11 1 0 0 0 14 20 35 31 35 26 24 196 382 340 103 79 322 81 122 116 212 353 528 734 969 1200 1274 1415 1540 1587 1585 1484 1332 1193 1185 1287 1193 956 936 1026 1156 1147 1140 1190 1154 1086 1107 977 767 681 772 948 935 963
1200 1168 822 586 427 476 460 512 330 8 105 16 46 28 0 0 0 0 0 0 0 0 50 12 2 7 19 142 39 24 0 0 0 14 4 27 58 51 49 36 7 72 404 80 51 78 72 80 78 104 155 236 356 483 649 819 1148 1328 1560 1739 1851 1889 1544 1396 1397 1204 1121 1134 1144 1070 989 950 991 1155 1221 1154 1368 1344 1160 874 798 796 802 924 972
1095 985 805 579 40 50 35 20 8 0 1 0 0 0 1 0 117 0 0 0 34 2 360 5 0 30 104 52 15 8 2 0 41 36 38 34 32 20 36 43 15 214 84 27 34 48 72 57 111 158 227 283 295 395 414 442 682 1147 1360 1621 1796 1899 1689 1393 1348 1308 1182 1115 1069 971 934 987 1102 1238 1186 1112 1166 1303 1259 1114 932 947 798 755 831
1097 929 853 543 356 9 14 1 2 0 8 17 0 0 1 0 0 63 0 18 48 63 38 0 14 3 221 0 5 0 0 0 30 11 124 11 0 292 135 15 127 32 8 25 40 52 60 106 127 242 332 252 207 214 245 325 419 670 840 1008 1245 1280 1377 1452 1459 1622 1757 1484 1420 1391 1286 1305 1242 1100 1073 1066 1117 1208 1219 1195 1194 1124 1069 1031 944
1069 948 873 518 435 399 420 361 0 0 0 0 0 0 0 0 0 30 0 1 0 2 1 0 7 5 0 0 0 0 0 1 35 5 28 0 0 0 1 66 26 10 18 48 59 64 125 106 144 216 215 192 188 192 224 276 397 487 556 743 1000 1117 1203 1356 1423 1422 1400 1416 1512 1506 1521 1544 1578 1569 1427 1286 1282 1154 1174 1154 1059 1153 1062 1034 1199
1034 940 876 543 451 403 0 0 0 0 0 0 0 0 0 0 0 0 0 0 0 0 0 0 12 14 0 0 0 0 0 3 8 0 0 0 0 0 1 27 15 19 48 82 102 92 90 125 150 174 162 175 211 243 265 296 355 396 478 574 804 1046 1176 1252 1293 1378 1352 1327 1203 1406 1430 1423 1380 1441 1540 1530 1480 1406 1333 1185 1097 1115 1196 1157 1047
1007 936 869 503 413 0 0 0 0 0 0 0 0 0 0 0 0 0 0 0 0 0 0 0 3 0 0 0 0 0 0 0 0 0 0 0 0 0 0 10 34 33 47 59 93 90 123 123 126 162 174 202 236 266 286 315 347 400 465 538 649 805 1004 1171 1272 1344 1315 1337 1332 1421 1285 1274 1359 1367 1366 1338 1366 1338 1265 1289 1300 1259 1164 1092 1135
1044 967 849 577 0 0 0 0 0 0 0 0 0 0 0 0 0 0 0 0 0 0 0 0 0 2 0 0 0 0 0 0 0 0 0 0 0 0 30 172 67 49 37 32 78 113 95 98 127 174 210 219 247 272 297 322 349 399 447 532 625 721 824 961 1077 1203 1342 1338 1318 1411 1352 1322 1371 1374 1354 1255 1256 1321 1327 1261 1173 1223 1265 1256 1103
1041 960 780 572 127 0 0 0 0 0 0 0 0 0 0 0 0 0 0 0 0 0 0 0 0 0 0 0 0 0 0 0 0 0 0 0 0 0 0 7 84 41 22 19 31 32 123 142 124 151 194 229 240 252 281 323 366 432 492 568 654 762 867 947 1013 1030 1106 1164 1341 1418 1482 1547 1464 1423 1420 1424 1463 1418 1376 1266 1184 1171 1230 1246 1272
1034 914 728 568 227 0 0 0 214 0 0 0 0 0 0 0 0 0 0 0 0 0 0 0 0 0 0 0 0 0 0 0 0 0 0 0 0 0 0 0 15 44 19 12 16 13 48 83 127 170 210 237 252 271 314 343 380 412 465 549 658 743 803 902 1004 1103 1142 1184 1270 1384 1522 1510 1516 1541 1484 1432 1459 1357 1345 1270 1248 1210 1120 1099 1159
987 867 703 576 356 307 328 337 324 280 0 45 0 0 0 0 0 0 0 0 1 0 0 1 0 0 0 0 0 0 0 0 0 0 0 0 0 0 0 0 11 0 0 1 3 10 14 77 124 190 254 333 354 294 274 307 368 425 552 686 745 862 963 1018 1090 1150 1223 1211 1250 1384 1476 1532 1566 1541 1577 1546 1522 1458 1415 1290 1153 1118 1101 1046 1165
940 791 661 556 382 361 367 361 358 155 0 131 0 0 0 0 0 0 0 3 8 2 0 0 0 0 0 0 0 0 0 0 25 6 0 0 0 0 0 0 0 8 57 35 2 0 10 41 96 151 201 205 219 248 291 349 439 575 692 787 901 1013 1032 1105 1162 1176 1273 1327 1368 1340 1349 1425 1548 1749 1696 1709 1556 1325 1282 1326 1450 1398 1377 1374 1320
839 721 594 495 441 422 437 413 377 191 0 0 0 0 0 0 0 0 2 3 0 0 0 0 0 0 0 0 0 0 6 0 0 0 0 0 0 0 0 0 0 0 0 0 0 2 32 58 85 134 152 172 200 236 431 633 680 756 697 796 904 933 986 990 1186 1175 1159 1220 1274 1285 1343 1534 1348 1381 1379 1435 1235 1357 1408 1242 1008 996 1117 996 1111
687 648 604 589 553 528 500 441 392 235 0 0 0 0 0 0 0 0 0 0 0 0 0 0 0 0 0 0 0 0 0 0 0 0 0 0 0 0 0 0 0 0 0 2 17 0 0 24 58 101 121 136 184 207 385 530 561 600 709 804 782 785 805 765 831 889 892 1102 1203 1265 1335 1340 1602 1659 1870 1760 1652 1581 1378 1417 1167 1185 1010 1207 1130
712 706 671 652 631 615 552 469 388 272 127 0 0 0 0 0 0 0 0 7 4 0 0 0 0 0 0 0 0 0 0 0 0 0 0 0 0 0 0 0 0 0 1 0 0 0 0 1 28 56 81 112 159 267 259 232 302 328 476 742 748 760 732 724 767 781 844 971 1049 1172 1323 1375 1461 1529 1594 1593 1693 1788 1681 1579 1524 1374 1281 1025 913
738 740 723 706 700 678 599 491 394 47 0 0 0 0 0 11 16 116 14 31 139 11 0 0 0 0 0 0 0 0 0 0 0 0 0 0 0 0 0 0 0 1 0 0 0 0 0 0 2 13 47 115 169 209 185 214 216 205 239 482 563 533 555 594 629 662 728 790 938 1080 1160 1295 1379 1486 1858 1938 1699 1707 1975 1900 1815 1330 1234 1394 1135
782 777 760 758 743 698 603 492 320 209 0 0 0 0 163 205 169 127 38 24 25 10 0 0 0 0 0 0 0 0 0 0 0 0 0 0 0 0 0 0 0 0 0 0 0 0 0 0 4 41 91 89 120 190 146 96 46 34 61 211 384 385 396 432 486 562 609 692 802 887 956 1113 1278 1424 1552 1584 1564 1565 1536 1533 1561 1391 1348 1303 1279
825 799 767 782 787 744 626 462 351 306 199 0 64 322 286 246 175 76 0 45 167 0 0 0 0 0 0 0 0 0 0 0 0 0 0 0 0 0 0 0 0 0 0 0 0 0 0 33 12 8 23 72 101 138 54 31 0 0 2 164 344 371 387 424 472 533 552 620 716 808 936 1000 1121 1270 1362 1422 1373 1307 1344 1412 1373 1327 1293 1290 1213
845 829 797 794 809 747 589 421 334 326 296 328 375 329 272 240 103 12 2 106 101 72 0 0 0 0 0 0 0 0 0 0 0 0 0 0 0 0 0 0 8 0 0 0 0 0 0 0 0 2 22 63 89 24 0 8 50 0 4 278 315 296 312 360 406 497 547 642 698 794 805 889 1058 1098 1288 1380 1510 1491 1310 900 905 1092 1175 1269 1308
800 781 802 824 796 655 467 482 460 410 414 417 379 322 278 157 58 9 58 50 21 0 4 0 52 2 0 0 0 0 0 0 0 0 0 0 0 0 0 0 0 0 0 0 0 0 0 0 15 50 47 48 37 35 0 27 128 175 154 220 276 307 330 355 407 477 528 584 658 750 790 846 912 1033 1107 986 951 1092 830 869 934 1037 1058 1090 1189
620 710 767 773 637 556 607 582 532 512 486 474 399 315 212 86 8 8 28 50 11 20 2 0 0 0 0 0 0 0 0 0 0 0 0 0 0 0 0 0 0 0 0 0 0 0 0 11 23 16 11 42 85 115 50 2 21 94 60 213 276 262 275 313 385 442 494 524 612 813 1148 1265 1248 1175 1024 945 957 814 694 731 886 1023 1008 1052 1137
637 694 616 584 620 670 642 586 576 566 560 453 331 242 100 6 46 30 34 4 0 0 0 0 0 0 0 0 0 0 0 0 0 0 0 0 0 0 0 0 0 0 0 0 0 0 0 0 0 0 22 97 88 60 12 0 0 0 69 170 190 230 218 236 304 342 461 483 546 766 936 1214 1336 1277 933 865 825 796 748 692 738 785 813 923 1044
696 674 646 698 749 704 700 686 600 551 432 297 218 64 24 8 36 22 1 1 0 0 0 0 0 0 0 0 0 0 0 0 0 0 0 0 0 0 0 0 0 0 0 0 0 0 0 0 0 0 0 1 0 2 39 0 0 0 0 109 267 218 174 179 166 226 342 465 545 654 794 699 582 585 614 617 557 480 494 615 597 609 707 838 959
736 734 748 755 759 827 842 755 564 442 308 180 16 3 76 103 12 0 0 0 0 0 0 0 0 0 0 0 0 0 0 0 0 0 0 0 0 0 0 0 0 0 0 0 0 0 0 0 0 0 0 0 0 0 35 0 0 0 0 13 119 123 102 88 106 173 224 288 382 540 641 601 462 466 420 391 394 432 460 513 548 601 639 729 850
792 823 852 892 901 837 695 525 405 313 37 0 0 10 1 80 69 0 0 0 0 0 0 0 0 0 0 0 0 0 0 0 0 0 0 0 0 0 0 0 0 0 0 0 0 0 0 0 0 0 0 0 0 0 8 8 0 0 0 0 5 32 65 50 34 31 66 169 350 522 618 600 447 464 507 492 465 438 477 480 512 552 553 561 531
782 803 732 634 570 506 466 299 89 0 0 0 0 0 34 214 6 0 0 0 0 0 0 0 0 0 0 0 0 0 0 0 0 0 0 0 0 0 0 0 0 0 0 0 0 0 0 0 0 0 0 0 0 0 0 3 0 0 0 0 0 0 0 9 6 0 3 28 134 334 472 518 396 446 550 647 645 592 509 473 445 384 160 136 44
592 468 406 342 75 0 0 0 0 0 0 0 0 0 33 4 2 0 0 1 2 0 0 0 1 0 0 0 0 0 0 0 0 0 0 0 0 0 0 0 0 0 0 0 0 0 0 0 0 0 0 0 0 0 0 0 2 0 0 0 7 20 30 37 24 6 3 36 112 202 302 68 0 0 25 253 356 464 430 335 258 69 1 2 2
92 1 26 1 0 0 0 0 0 0 0 0 0 24 343 129 6 0 0 0 0 0 1 0 0 0 0 0 0 0 0 0 0 0 0 0 0 0 0 0 0 0 0 0 0 0 2 3 2 3 1 0 0 0 0 0 0 21 2 0 28 57 68 68 56 48 58 123 76 3 0 0 0 3 3 5 401 467 453 406 298 237 165 2 2
0 0 0 0 0 0 0 0 0 0 0 160 0 7 69 17 2 2 5 0 0 0 1 0 0 0 0 0 0 0 0 0 0 0 0 0 0 0 0 0 0 0 0 0 1 2 4 10 12 12 12 6 3 2 3 2 10 30 51 16 26 40 58 88 194 170 131 124 126 141 138 24 0 0 1 6 6 29 51 1 56 39 47 31 29
0 0 54 0 0 0 0 0 0 0 0 0 0 0 0 0 10 2 0 0 0 0 0 0 0 0 0 0 0 0 0 0 0 0 0 0 0 0 0 3 6 4 3 2 4 9 13 16 17 17 18 19 18 14 12 10 10 19 15 40 18 8 100 126 157 217 213 186 194 213 255 100 38 12 12 70 192 306 417 394 353 355 292 242 198
0 0 0 0 0 0 0 0 0 0 0 0 1 4 0 0 0 0 0 0 0 0 0 0 0 0 0 0 0 0 10 0 0 0 0 0 0 0 1 5 8 11 12 10 13 19 20 24 22 18 17 18 18 15 20 34 41 52 12 6 12 73 146 57 42 192 217 279 288 304 313 427 532 437 355 327 341 316 225 197 188 232 187 238 313
0 0 0 0 0 0 0 0 0 0 0 0 0 0 0 0 0 0 0 0 0 0 0 0 0 0 0 0 0 0 0 0 0 0 0 0 0 0 0 3 3 7 11 13 29 25 30 20 18 16 19 17 16 17 24 23 17 6 5 7 9 50 143 162 111 95 106 200 324 438 516 459 429 485 315 354 379 303 168 128 156 191 140 187 383
0 0 0 0 0 0 0 0 0 0 0 0 1 0 0 0 0 0 0 0 0 0 0 0 0 0 0 0 0 0 0 0 0 0 0 0 0 0 0 6 3 4 10 10 14 12 12 12 12 5 7 20 19 16 3 0 0 2 2 0 6 14 52 105 106 115 130 146 248 380 513 542 512 562 539 442 339 262 201 152 163 192 205 242 326
0 0 0 0 0 8 0 0 0 1 0 0 0 0 0 0 0 0 0 0 0 0 0 0 0 0 0 0 0 0 0 0 0 0 0 0 0 0 0 0 1 9 8 12 11 10 9 12 18 13 5 4 1 0 0 0 3 1 0 0 2 6 9 28 82 110 104 94 171 241 351 393 506 460 373 313 363 339 313 319 252 237 215 295 306
Wind_Speed
11 13 13 12 10 8 7 6 6 8 8 7 8 12 12 8 5 2 5 9 9 7 3 1 2 1 1 3 3 2 5 1 2 4 6 4 6 6 5 5 6 6 7 11 11 8 7 6 9 12 13 10 7 5 5 5 6 6 8 9 10 10 8 7 6 9 6 6 5 0 2 1 2 1 1 4 4 3 4 5 5 4 3 2 4
6 8 10 9 10 11 9 8 9 13 13 9 8 12 18 17 12 8 7 7 6 4 4 6 9 7 2 5 7 7 8 7 6 5 6 5 4 3 3 4 2 2 4 5 9 9 5 5 8 7 9 10 8 5 5 5 6 7 8 10 10 11 10 10 11 14 10 6 7 8 6 5 1 1 1 3 4 5 5 5 5 4 4 4 7
6 6 8 8 9 10 10 11 10 11 8 7 7 12 19 15 8 9 7 7 8 7 4 6 5 8 5 5 8 6 5 6 6 7 9 7 3 3 6 5 4 6 7 10 11 11 12 10 6 4 6 7 7 6 7 7 8 8 9 9 10 10 11 14 14 12 11 13 12 11 9 11 10 6 3 3 5 6 7 6 6 5 4 6 7
5 5 6 5 6 8 8 9 10 10 13 14 15 16 15 10 8 7 4 6 8 8 8 6 7 6 5 5 7 6 6 5 9 10 7 5 4 4 5 8 10 11 13 12 10 10 11 12 10 7 5 5 6 7 9 10 11 11 9 7 9 10 11 11 13 13 13 16 12 12 12 12 9 10 11 9 8 8 7 6 7 6 6 6 8
5 4 3 3 3 4 5 6 8 11 12 11 12 10 9 10 8 6 4 7 8 7 5 5 5 6 8 8 7 6 9 10 7 7 6 5 5 4 5 7 9 10 10 10 11 11 10 10 10 11 9 8 5 5 7 10 12 13 12 9 10 9 10 14 13 14 13 13 15 17 15 13 9 10 12 11 14 10 7 7 7 7 8 8 8
5 6 6 5 4 3 3 4 5 6 7 7 6 7 6 3 5 4 4 8 10 11 8 7 9 9 7 9 7 8 8 8 6 6 6 5 5 6 6 7 8 9 9 10 11 12 12 12 13 12 11 12 11 9 7 7 8 11 13 13 9 10 10 14 15 14 13 14 12 12 17 14 13 13 15 12 13 12 13 12 9 8 8 9 8
3 2 2 4 3 3 3 3 4 4 4 4 4 3 4 5 6 6 3 5 7 9 7 6 5 8 6 5 5 6 5 6 6 6 6 7 6 6 6 7 9 9 9 10 11 13 11 12 11 11 11 10 9 8 7 7 6 7 11 14 13 13 13 12 13 16 14 11 12 11 11 12 17 15 12 16 14 16 14 13 12 10 8 7 7
3 2 3 2 4 5 4 4 4 3 4 4 3 3 3 4 3 4 3 3 4 5 5 6 4 6 6 5 4 5 4 7 7 6 5 5 5 5 5 5 6 9 9 10 11 12 12 12 10 10 9 9 9 9 8 7 6 6 11 14 15 16 16 14 13 16 15 15 14 11 11 11 13 14 15 12 14 14 13 15 15 13 10 8 6
1 1 2 3 3 4 4 4 4 3 3 3 3 1 1 1 2 2 2 2 4 5 4 5 5 5 3 2 3 4 4 5 4 4 3 3 3 3 4 5 6 7 9 9 9 11 11 12 12 11 11 9 8 9 9 9 8 8 10 11 10 11 14 14 14 14 14 15 18 13 11 12 15 15 16 17 14 13 11 14 14 17 14 10 8
1 2 2 2 2 3 4 4 4 3 2 1 0 1 1 1 1 2 3 2 0 2 1 1 2 0 1 1 3 4 2 2 1 2 2 2 2 2 3 4 5 5 6 8 9 10 10 11 13 14 13 11 10 10 11 10 9 9 11 11 12 10 11 13 13 14 14 15 16 18 18 16 16 16 16 16 14 12 13 16 15 16 17 15 14
2 1 1 2 3 4 6 6 5 4 3 2 1 1 1 2 3 5 5 3 2 1 1 1 1 2 2 2 2 3 3 1 1 2 1 1 1 2 3 3 5 5 7 8 9 9 10 11 11 12 12 12 12 13 12 12 10 9 9 10 12 12 11 11 10 12 15 16 16 17 17 19 18 18 19 20 18 17 16 12 15 15 14 13 14
4 3 3 6 7 7 8 8 6 5 5 3 2 2 2 2 3 4 5 5 5 3 1 0 1 1 0 1 1 1 1 0 2 2 1 1 2 2 3 4 nan 5 6 6 6 8 10 11 12 11 12 12 12 12 12 13 10 9 11 10 10 10 10 10 12 11 12 15 16 17 18 19 18 17 21 22 21 20 20 17 18 20 18 16 16
5 4 5 6 7 8 9 8 7 6 5 4 3 3 3 3 nan 3 2 nan nan nan 4 3 3 2 3 3 2 3 4 5 5 5 nan nan nan 4 4 4 nan nan nan 6 6 6 8 8 10 12 12 13 12 13 13 16 18 14 13 10 11 8 10 12 14 16 14 14 17 18 19 19 18 20 21 22 22 22 21 18 19 19 16 17 18
5 5 6 7 7 8 10 9 7 6 6 5 4 4 4 4 nan 3 nan nan nan nan nan nan nan 5 6 6 nan 7 7 8 nan nan nan nan nan 8 7 7 nan nan nan nan nan 8 9 11 11 12 13 13 13 14 14 14 17 17 17 16 13 10 10 11 13 15 14 12 16 17 18 19 20 22 21 21 22 24 21 21 23 22 19 18 21
6 7 7 8 8 10 11 10 9 8 7 6 5 5 6 6 nan nan nan nan nan nan nan nan nan nan nan nan 9 9 10 nan nan 9 9 nan nan nan nan nan nan nan nan nan 9 10 10 10 11 12 13 13 14 13 13 13 17 19 17 19 18 16 13 14 16 16 13 11 12 14 15 17 20 22 24 22 23 23 22 23 25 21 21 22 21
8 9 9 9 10 11 11 10 10 9 8 8 7 7 nan nan nan nan nan nan nan 6 nan nan nan nan nan nan nan 10 9 10 8 9 nan nan nan nan nan nan nan nan nan 11 nan 13 12 12 12 13 13 14 14 14 14 14 15 17 17 18 18 19 20 18 17 16 12 12 13 15 16 16 19 22 25 25 25 25 24 25 26 25 21 22 26
9 10 11 11 12 11 11 11 11 10 10 nan nan nan nan nan nan nan nan nan nan nan nan nan nan nan nan nan nan nan nan nan nan nan nan nan nan nan nan nan nan nan nan 14 13 13 15 15 15 15 15 16 16 16 17 16 16 16 15 15 16 20 20 19 19 19 15 14 16 15 17 18 19 21 24 27 29 30 32 32 29 26 27 24 24
11 11 12 12 12 12 11 11 12 12 nan nan 8 nan nan nan nan nan nan nan nan nan nan nan nan nan nan nan nan nan nan nan nan nan nan nan nan nan nan nan nan nan 16 16 16 15 nan 16 nan 16 16 17 17 18 18 18 19 18 17 15 14 16 19 22 20 19 16 16 17 16 18 18 22 23 26 29 34 33 28 26 27 28 29 26 27
14 13 13 13 12 12 13 12 12 nan 10 nan nan nan nan nan nan nan nan nan nan nan nan nan nan nan nan 13 nan nan nan nan nan nan nan nan nan nan nan nan nan nan 17 nan nan nan nan nan nan 17 18 17 18 18 19 19 20 19 19 19 17 16 17 18 19 20 20 19 17 15 17 18 23 26 27 29 25 25 26 31 31 30 30 27 27
14 14 13 13 nan nan nan nan nan nan nan nan nan nan nan nan 13 nan nan nan nan nan 12 nan nan nan 13 nan nan nan nan nan nan nan nan nan nan nan nan nan nan 20 nan nan nan nan nan nan 19 19 19 20 19 19 19 19 21 21 21 21 20 20 19 17 16 18 20 22 21 18 17 20 24 26 25 27 25 26 28 30 31 32 32 31 30
14 14 13 13 13 nan nan nan nan nan nan nan nan nan nan nan nan nan nan nan nan nan nan nan nan nan 14 nan nan nan nan nan nan nan 22 nan nan 22 22 nan 22 nan nan nan nan nan nan 22 21 21 21 21 21 21 22 22 22 22 22 22 22 21 20 19 18 16 17 21 22 21 20 20 22 24 26 27 26 27 29 32 33 32 31 33 32
14 14 14 14 13 14 15 15 nan nan nan nan nan nan nan nan nan nan nan nan nan nan nan nan nan nan nan nan nan nan nan nan nan nan nan nan nan nan nan nan nan nan nan nan nan nan 24 23 24 24 24 24 23 24 24 25 24 24 23 24 23 22 21 21 22 19 17 18 19 20 20 19 21 20 22 23 25 26 28 30 35 35 33 32 31
14 15 14 14 14 15 nan nan nan nan nan nan nan nan nan nan nan nan nan nan nan nan nan nan nan nan nan nan nan nan nan nan nan nan nan nan nan nan nan nan nan nan nan nan 25 nan nan 25 26 26 26 26 26 26 26 26 26 26 25 25 24 24 22 21 21 21 19 18 17 19 21 22 23 20 20 22 23 24 26 28 30 34 35 33 32
14 14 15 15 16 nan nan nan nan nan nan nan nan nan nan nan nan nan nan nan nan nan nan nan nan nan nan nan nan nan nan nan nan nan nan nan nan nan nan nan nan nan nan nan nan nan 27 27 27 27 27 27 27 27 27 28 28 28 28 27 27 26 25 23 21 20 20 21 19 18 18 21 23 21 19 20 22 23 25 26 27 31 32 32 33
15 14 15 17 nan nan nan nan nan nan nan nan nan nan nan nan nan nan nan nan nan nan nan nan nan nan nan nan nan nan nan nan nan nan nan nan nan nan nan 30 nan nan nan nan nan 29 nan nan 29 28 29 29 29 28 28 28 29 29 29 29 28 28 27 26 24 22 21 21 20 19 18 19 21 20 20 19 20 20 23 24 24 27 30 32 34
14 16 17 17 17 nan nan nan nan nan nan nan nan nan nan nan nan nan nan nan nan nan nan nan nan nan nan nan nan nan nan nan nan nan nan nan nan nan nan nan nan nan nan nan nan nan 31 30 30 30 30 30 30 30 30 29 29 29 30 30 30 29 28 28 26 23 22 22 21 21 20 20 19 20 20 20 21 20 21 22 22 24 27 30 32
14 16 16 18 17 nan nan nan 19 nan nan nan nan nan nan nan nan nan nan nan nan nan nan nan nan nan nan nan nan nan nan nan nan nan nan nan nan nan nan nan nan nan nan nan nan nan nan nan 31 32 31 31 31 32 32 31 31 31 31 30 31 30 29 29 28 27 26 24 24 23 22 21 21 20 21 22 22 21 22 21 22 23 25 27 29
15 16 18 18 18 18 20 21 21 21 nan nan nan nan nan nan nan nan nan nan nan nan nan nan nan nan nan nan nan nan nan nan nan nan nan nan nan nan nan nan nan nan nan nan nan nan nan nan 33 33 33 33 33 33 33 33 33 33 32 32 32 31 30 29 28 28 28 25 25 25 25 24 23 22 23 23 25 25 25 23 23 25 26 26 26
16 17 18 20 21 21 22 23 23 24 nan 22 nan nan nan nan nan nan nan nan nan nan nan nan nan nan nan nan nan nan nan nan nan nan nan nan nan nan nan nan nan nan nan nan nan nan nan nan nan 34 34 34 34 34 35 35 34 33 35 34 33 32 30 30 28 28 29 29 27 26 25 25 24 21 18 19 21 25 29 27 26 27 26 26 26
18 19 20 20 22 23 24 24 25 25 nan nan nan nan nan nan nan nan nan nan nan nan nan nan nan nan nan nan nan nan nan nan nan nan nan nan nan nan nan nan nan nan nan nan nan nan nan nan nan 34 34 35 35 36 32 27 29 33 32 33 33 32 32 31 31 30 29 30 30 30 29 22 21 20 19 17 17 19 21 27 28 28 27 26 26
18 19 20 21 23 24 25 26 26 26 nan nan nan nan nan nan nan nan nan nan nan nan nan nan nan nan nan nan nan nan nan nan nan nan nan nan nan nan nan nan nan nan nan nan nan nan nan nan nan 35 34 35 35 35 28 29 30 28 32 34 34 33 33 32 31 31 30 31 32 32 32 28 25 24 25 20 20 19 21 21 20 21 23 27 27
20 21 22 23 24 25 25 26 26 26 27 nan nan nan nan nan nan nan nan nan nan nan nan nan nan nan nan nan nan nan nan nan nan nan nan nan nan nan nan nan nan nan nan nan nan nan nan nan nan nan nan 34 35 32 29 30 30 30 31 33 34 33 33 32 33 32 32 33 32 33 33 33 31 29 29 30 26 22 22 22 21 21 21 20 21
25 25 24 25 26 26 27 27 27 nan nan nan nan nan nan nan nan 28 nan nan 30 nan nan nan nan nan nan nan nan nan nan nan nan nan nan nan nan nan nan nan nan nan nan nan nan nan nan nan nan nan nan 34 35 32 30 29 30 30 31 31 35 35 34 34 35 34 35 34 34 34 33 33 34 28 29 30 30 29 27 23 23 21 22 23 26
25 25 26 26 27 28 28 28 29 29 nan nan nan nan 30 31 31 31 nan nan nan nan nan nan nan nan nan nan nan nan nan nan nan nan nan nan nan nan nan nan nan nan nan nan nan nan nan nan nan nan nan nan 34 32 30 nan nan nan nan 33 37 36 36 35 35 36 36 35 35 34 34 34 35 35 34 32 31 31 31 31 31 30 29 26 24
26 25 26 27 28 29 30 30 31 32 32 nan nan 30 32 32 32 nan nan nan 31 nan nan nan nan nan nan nan nan nan nan nan nan nan nan nan nan nan nan nan nan nan nan nan nan nan nan nan nan nan nan nan 35 30 nan nan nan nan nan 35 38 38 36 36 36 36 35 35 35 35 34 34 34 36 37 35 33 32 33 33 31 30 29 27 26
25 26 27 29 30 31 32 32 31 33 33 33 33 34 34 32 33 nan nan 33 32 nan nan nan nan nan nan nan nan nan nan nan nan nan nan nan nan nan nan nan nan nan nan nan nan nan nan nan nan nan nan nan nan nan nan nan nan nan nan 39 39 39 37 36 36 37 38 37 36 36 34 34 34 34 33 30 31 34 35 33 30 31 30 29 27
24 25 26 27 29 31 32 33 33 33 35 33 33 35 34 35 nan nan nan nan nan nan nan nan nan nan nan nan nan nan nan nan nan nan nan nan nan nan nan nan nan nan nan nan nan nan nan nan nan nan nan nan nan nan nan nan 33 33 38 41 41 39 38 38 37 38 38 38 37 37 36 36 35 36 34 34 34 31 34 33 33 32 31 30 29
30 31 31 31 31 32 31 34 34 33 33 33 35 35 35 nan nan nan nan nan nan nan nan nan nan nan nan nan nan nan nan nan nan nan nan nan nan nan nan nan nan nan nan nan nan nan nan nan nan nan nan nan nan 36 nan nan nan nan nan 41 41 39 39 39 39 39 39 38 36 32 34 37 37 37 36 35 34 33 35 34 34 33 32 31 29
32 33 34 33 32 32 32 33 34 34 32 33 35 35 35 nan nan nan nan nan nan nan nan nan nan nan nan nan nan nan nan nan nan nan nan nan nan nan nan nan nan nan nan nan nan nan nan nan nan nan nan nan nan nan nan nan nan nan nan 43 41 40 39 40 41 40 40 39 38 37 33 35 37 37 36 36 36 37 36 35 34 33 30 30 30
34 35 35 34 34 35 33 34 34 33 33 34 35 nan nan nan nan nan nan nan nan nan nan nan nan nan nan nan nan nan nan nan nan nan nan nan nan nan nan nan nan nan nan nan nan nan nan nan nan nan nan nan nan nan nan nan nan nan nan 42 43 42 41 41 42 42 41 41 40 40 38 37 35 35 35 35 36 36 37 37 35 35 32 30 33
35 34 34 35 33 34 35 33 31 32 33 33 nan nan nan 33 nan nan nan nan nan nan nan nan nan nan nan nan nan nan nan nan nan nan nan nan nan nan nan nan nan nan nan nan nan nan nan nan nan nan nan nan nan nan nan nan nan nan nan nan 45 44 44 nan 43 41 42 41 41 41 42 40 37 37 36 35 34 34 35 37 35 35 34 34 36
32 33 33 34 35 35 34 32 31 32 nan nan nan nan nan nan nan nan nan nan nan nan nan nan nan nan nan nan nan nan nan nan nan nan nan nan nan nan nan nan nan nan nan nan nan nan nan nan nan nan nan nan nan nan nan nan nan nan nan nan nan nan nan nan nan nan nan 41 41 41 41 41 38 37 37 36 35 35 35 39 37 34 35 36 37
33 32 31 35 35 35 34 32 nan nan nan nan nan nan nan 32 nan nan nan nan nan nan nan nan nan nan nan nan nan nan nan nan nan nan nan nan nan nan nan nan nan nan nan nan nan nan nan nan nan nan nan nan nan nan nan nan nan nan nan nan nan nan nan nan nan nan nan nan 39 39 39 36 37 37 38 38 38 38 39 41 38 37 36 36 nan
32 34 34 36 nan nan nan nan nan nan nan nan nan nan nan nan nan nan nan nan nan nan nan nan nan nan nan nan nan nan nan nan nan nan nan nan nan nan nan nan nan nan nan nan nan nan nan nan nan nan nan nan nan nan nan nan nan nan nan nan nan nan nan nan nan nan nan nan 35 36 37 nan nan nan nan 37 38 38 40 38 39 nan nan nan nan
nan nan nan nan nan nan nan nan nan nan nan nan nan nan 31 30 nan nan nan nan nan nan nan nan nan nan nan nan nan nan nan nan nan nan nan nan nan nan nan nan nan nan nan nan nan nan nan nan nan nan nan nan nan nan nan nan nan nan nan nan nan nan nan nan nan nan nan 32 nan nan nan nan nan nan nan nan 37 36 34 34 33 34 34 nan nan
nan nan nan nan nan nan nan nan nan nan nan 29 nan nan nan nan nan nan nan nan nan nan nan nan nan nan nan nan nan nan nan nan nan nan nan nan nan nan nan nan nan nan nan nan nan nan nan nan nan nan nan nan nan nan nan nan nan nan nan nan nan nan nan nan 29 31 27 25 26 26 27 nan nan nan nan nan nan nan nan nan nan nan nan nan nan
nan nan nan nan nan nan nan nan nan nan nan nan nan nan nan nan nan nan nan nan nan nan nan nan nan nan nan nan nan nan nan nan nan nan nan nan nan nan nan nan nan nan nan nan nan nan nan nan nan nan nan nan nan nan nan nan nan nan nan nan nan nan nan 27 31 33 32 31 29 28 30 nan nan nan nan nan 31 32 33 34 34 33 33 33 33
nan nan nan nan nan nan nan nan nan nan nan nan nan nan nan nan nan nan nan nan nan nan nan nan nan nan nan nan nan nan nan nan nan nan nan nan nan nan nan nan nan nan nan nan nan nan nan nan nan nan nan nan nan nan nan nan nan nan nan nan nan nan 29 nan nan 30 31 30 29 28 27 30 30 32 33 35 36 36 35 33 32 31 32 32 30
nan nan nan nan nan nan nan nan nan nan nan nan nan nan nan nan nan nan nan nan nan nan nan nan nan nan nan nan nan nan nan nan nan nan nan nan nan nan nan nan nan nan nan nan nan nan nan nan nan nan nan nan nan nan nan nan nan nan nan nan nan nan 27 26 24 nan 26 28 29 28 27 28 28 28 30 31 34 34 33 32 31 30 31 31 32
nan nan nan nan nan nan nan nan nan nan nan nan nan nan nan nan nan nan nan nan nan nan nan nan nan nan nan nan nan nan nan nan nan nan nan nan nan nan nan nan nan nan nan nan nan nan nan nan nan nan nan nan nan nan nan nan nan nan nan nan nan nan nan 19 17 18 23 24 24 24 24 25 26 28 27 28 28 30 29 29 29 29 29 30 31
nan nan nan nan nan nan nan nan nan nan nan nan nan nan nan nan nan nan nan nan nan nan nan nan nan nan nan nan nan nan nan nan nan nan nan nan nan nan nan nan nan nan nan nan nan nan nan nan nan nan nan nan nan nan nan nan nan nan nan nan nan nan nan nan nan 20 23 nan 23 23 22 22 23 24 24 24 25 27 27 26 26 27 27 27 27
Wind_Direction
35 22 25 32 47 67 78 84 80 83 90 92 103 112 112 101 66 54 218 224 229 237 235 153 116 57 251 53 61 98 105 74 336 47 67 47 18 20 6 360 356 334 330 326 325 315 287 259 229 228 233 241 257 268 268 273 273 276 273 281 288 283 279 282 280 277 272 248 273 45 149 150 134 152 295 289 292 280 269 269 260 252 256 268 250
47 40 54 41 50 57 69 70 63 67 83 103 112 114 100 82 77 97 128 141 131 138 147 151 149 126 86 85 89 73 67 77 85 78 77 59 16 342 300 326 7 16 348 358 6 352 358 276 254 251 248 239 236 254 275 280 276 274 268 263 272 279 271 279 277 270 259 270 245 234 237 229 232 208 211 258 274 272 273 273 272 283 281 278 256
62 64 64 64 60 53 61 62 65 75 84 78 77 75 75 77 88 83 86 95 107 114 140 109 88 98 119 103 86 97 124 124 128 119 99 93 90 0 1 4 13 51 37 16 21 14 13 4 5 318 292 273 268 277 291 294 289 284 274 263 258 262 264 266 282 284 263 261 262 248 236 228 242 238 231 238 258 264 266 273 277 280 294 278 268
17 50 67 76 61 55 48 45 45 42 51 38 35 33 55 61 72 87 94 101 93 110 100 93 113 136 139 107 128 146 121 96 71 63 85 124 108 68 35 11 13 25 36 36 22 4 11 21 14 18 348 312 285 277 287 292 291 283 278 272 264 254 260 267 274 281 269 265 254 263 250 252 225 240 236 242 269 268 273 270 268 269 268 270 265
7 14 36 36 44 63 41 26 15 24 36 28 23 15 44 35 46 65 100 93 102 102 121 111 124 126 130 126 133 124 94 81 89 91 76 72 67 46 37 21 20 25 25 27 18 2 12 24 16 3 11 3 350 327 292 284 283 283 281 277 279 270 260 261 268 275 277 270 266 260 257 254 257 241 237 238 254 256 262 263 257 255 252 256 262
13 12 9 7 360 15 29 28 26 27 30 40 31 7 353 1 47 81 104 110 122 122 115 136 135 131 106 94 84 85 96 114 113 114 110 94 78 64 43 21 23 26 23 21 24 19 13 17 13 15 9 8 360 355 336 304 291 284 285 279 273 279 269 267 263 269 272 274 273 261 262 260 256 253 243 235 246 255 251 258 256 252 246 248 250
132 135 31 338 350 352 20 18 33 26 49 52 39 6 352 359 13 32 54 82 81 96 103 116 93 96 99 91 79 73 89 85 64 67 70 73 62 62 47 33 19 25 27 21 23 24 19 22 28 18 8 3 354 355 351 349 334 308 291 284 274 266 267 266 268 264 265 265 269 270 261 257 259 251 249 245 231 239 251 250 253 254 252 252 249
114 110 97 52 358 358 6 19 22 24 21 48 41 16 358 1 356 5 53 68 73 69 76 77 80 90 73 73 74 87 79 78 92 90 70 67 74 64 43 37 29 18 23 19 16 18 14 17 17 16 16 2 351 350 354 352 351 324 306 288 274 267 265 261 258 263 270 257 268 273 269 260 259 255 259 251 242 231 225 247 250 255 254 250 254
329 35 64 44 16 352 345 353 7 344 18 40 49 40 27 16 352 345 341 18 17 36 26 46 46 43 66 86 110 111 80 87 98 94 84 61 56 47 30 29 26 18 10 15 14 8 17 12 6 7 19 12 356 350 346 349 0 342 319 315 313 289 278 270 261 260 264 260 262 264 267 263 259 261 260 262 258 251 232 229 229 249 247 240 245
269 16 17 38 18 322 311 307 298 301 325 355 40 55 52 83 201 222 209 186 279 12 5 29 81 330 308 80 101 97 104 113 110 91 81 39 48 52 26 15 12 12 1 2 5 8 16 11 7 8 10 3 356 352 349 349 352 342 328 325 324 319 294 285 280 265 260 260 266 263 265 261 258 258 264 267 261 265 249 245 237 227 226 239 251
261 314 331 273 259 272 281 287 281 258 247 271 274 281 226 216 216 208 180 189 192 200 218 237 33 17 25 36 50 92 126 166 170 122 135 244 291 34 6 15 7 6 359 354 354 358 2 3 5 5 3 1 357 352 349 342 347 343 332 324 318 316 307 301 287 270 258 254 258 264 264 265 265 267 268 268 269 264 260 250 243 247 245 219 240
271 286 277 275 263 254 261 266 271 272 266 259 272 273 262 242 245 222 188 185 184 202 256 237 347 40 56 336 53 110 152 124 356 38 42 31 11 13 7 351 nan 353 345 336 340 344 347 349 352 356 356 356 353 352 349 334 329 340 325 319 312 310 312 305 294 278 267 254 252 253 256 259 260 260 260 264 267 262 262 253 249 248 248 256 239
270 280 278 276 285 282 272 264 262 275 288 295 304 292 275 261 nan 263 217 nan nan nan 271 268 291 312 330 331 343 339 342 346 351 359 nan nan nan 344 331 331 nan nan nan 326 334 336 335 338 338 340 341 344 347 349 348 340 337 337 317 324 298 289 289 282 281 277 270 274 266 257 249 251 253 254 255 259 260 260 261 255 253 253 251 243 245
270 276 276 277 283 279 276 276 276 273 276 281 274 276 274 258 nan 266 nan nan nan nan nan nan nan 311 327 329 nan 335 326 329 nan nan nan nan nan 343 342 342 nan nan nan nan nan 335 333 334 335 336 335 336 339 341 342 338 331 328 329 315 318 328 309 292 283 284 285 281 278 276 269 259 253 253 255 256 259 262 259 260 254 253 254 249 248
261 274 278 281 279 278 279 278 276 275 279 270 259 260 257 257 nan nan nan nan nan nan nan nan nan nan nan nan 310 313 310 nan nan 323 327 nan nan nan nan nan nan nan nan nan 326 324 325 321 320 321 321 324 326 329 330 330 327 329 328 323 327 323 312 300 299 297 301 299 282 278 274 268 263 258 254 252 255 258 258 256 259 251 247 252 250
258 269 265 265 271 270 270 271 271 272 275 268 267 260 nan nan nan nan nan nan nan 255 nan nan nan nan nan nan nan 286 295 295 297 300 nan nan nan nan nan nan nan nan nan 323 nan 314 313 313 313 312 313 313 315 317 319 319 321 325 324 325 327 319 316 320 314 311 313 307 293 280 276 274 270 267 260 252 248 249 252 251 255 254 247 241 248
261 270 270 270 262 266 276 277 272 267 264 nan nan nan nan nan nan nan nan nan nan nan nan nan nan nan nan nan nan nan nan nan nan nan nan nan nan nan nan nan nan nan nan 313 310 307 308 311 310 310 308 309 311 313 314 314 314 315 319 323 324 319 318 320 316 315 313 303 291 286 277 271 268 265 261 254 246 239 236 235 240 247 252 246 243
263 259 265 273 280 286 279 275 277 277 nan nan 271 nan nan nan nan nan nan nan nan nan nan nan nan nan nan nan nan nan nan nan nan nan nan nan nan nan nan nan nan nan 306 306 303 305 nan 302 nan 307 307 305 307 309 310 310 309 310 314 318 318 315 311 312 315 314 312 303 295 287 279 269 264 260 260 256 250 251 257 257 251 245 240 244 245
258 262 263 269 279 282 280 279 267 nan 269 nan nan nan nan nan nan nan nan nan nan nan nan nan nan nan nan 297 nan nan nan nan nan nan nan nan nan nan nan nan nan nan 300 nan nan nan nan nan nan 302 301 301 302 303 304 305 305 306 308 308 309 308 307 308 308 309 308 305 301 294 284 274 263 255 254 263 260 257 252 253 253 253 255 247 239
262 263 267 274 nan nan nan nan nan nan nan nan nan nan nan nan 266 nan nan nan nan nan 284 nan nan nan 297 nan nan nan nan nan nan nan nan nan nan nan nan nan nan 301 nan nan nan nan nan nan 298 298 299 299 299 298 298 299 300 303 303 304 305 306 306 307 304 306 305 305 304 300 289 277 274 273 266 267 267 262 260 256 252 251 251 253 250
266 266 269 273 280 nan nan nan nan nan nan nan nan nan nan nan nan nan nan nan nan nan nan nan nan nan 296 nan nan nan nan nan nan nan 301 nan nan 301 302 nan 298 nan nan nan nan nan nan 299 298 298 298 298 296 296 296 297 297 298 299 301 302 305 308 305 302 297 298 301 301 300 295 288 281 278 273 271 269 264 261 262 263 258 252 251 251
271 269 271 275 278 281 279 272 nan nan nan nan nan nan nan nan nan nan nan nan nan nan nan nan nan nan nan nan nan nan nan nan nan nan nan nan nan nan nan nan nan nan nan nan nan nan 297 297 298 298 298 297 297 297 297 295 296 295 294 295 297 300 303 303 301 299 293 292 294 297 296 290 284 279 272 269 269 264 258 256 261 263 261 255 255
282 277 274 277 282 283 nan nan nan nan nan nan nan nan nan nan nan nan nan nan nan nan nan nan nan nan nan nan nan nan nan nan nan nan nan nan nan nan nan nan nan nan nan nan 298 nan nan 295 295 296 296 295 296 295 294 294 294 295 294 293 294 296 297 298 298 298 297 294 292 290 289 288 286 281 276 272 269 266 261 257 255 257 260 261 260
271 269 271 274 274 nan nan nan nan nan nan nan nan nan nan nan nan nan nan nan nan nan nan nan nan nan nan nan nan nan nan nan nan nan nan nan nan nan nan nan nan nan nan nan nan nan 292 292 292 291 292 291 291 291 291 292 293 293 293 293 294 295 295 295 295 294 292 292 291 286 283 284 286 285 279 274 272 269 267 262 258 255 254 255 257
278 283 281 273 nan nan nan nan nan nan nan nan nan nan nan nan nan nan nan nan nan nan nan nan nan nan nan nan nan nan nan nan nan nan nan nan nan nan nan 296 nan nan nan nan nan 290 nan nan 290 290 289 289 289 289 289 289 290 291 292 291 291 292 294 295 295 293 291 288 287 288 282 280 282 285 282 278 275 275 271 268 264 261 256 253 252
291 286 286 291 286 nan nan nan nan nan nan nan nan nan nan nan nan nan nan nan nan nan nan nan nan nan nan nan nan nan nan nan nan nan nan nan nan nan nan nan nan nan nan nan nan nan 289 289 289 289 289 289 289 289 290 289 289 288 288 288 288 288 290 292 293 292 291 288 285 285 284 281 279 278 277 276 276 277 276 274 272 268 264 257 252
308 304 292 278 283 nan nan nan 291 nan nan nan nan nan nan nan nan nan nan nan nan nan nan nan nan nan nan nan nan nan nan nan nan nan nan nan nan nan nan nan nan nan nan nan nan nan nan nan 288 288 287 288 287 287 287 288 288 288 288 285 284 284 285 286 289 290 290 288 286 284 282 280 278 276 273 273 273 273 276 278 277 273 270 265 258
281 287 296 306 303 298 300 298 294 292 nan nan nan nan nan nan nan nan nan nan nan nan nan nan nan nan nan nan nan nan nan nan nan nan nan nan nan nan nan nan nan nan nan nan nan nan nan nan 287 287 287 285 285 284 285 286 287 287 287 286 284 282 280 281 283 285 285 285 285 283 281 279 279 276 273 273 274 274 273 276 277 277 275 272 267
299 304 302 302 309 306 303 301 298 293 nan 292 nan nan nan nan nan nan nan nan nan nan nan nan nan nan nan nan nan nan nan nan nan nan nan nan nan nan nan nan nan nan nan nan nan nan nan nan nan 287 285 285 284 283 283 284 286 285 286 286 282 280 278 278 279 280 281 281 280 280 279 278 279 281 283 280 277 276 271 269 272 276 278 277 273
314 310 307 304 302 299 300 298 296 297 nan nan nan nan nan nan nan nan nan nan nan nan nan nan nan nan nan nan nan nan nan nan nan nan nan nan nan nan nan nan nan nan nan nan nan nan nan nan nan 284 284 283 283 283 282 280 277 279 280 279 279 277 276 277 277 278 278 279 278 277 276 279 279 277 272 269 268 273 280 276 268 266 269 271 272
306 298 299 294 291 292 294 296 297 298 nan nan nan nan nan nan nan nan nan nan nan nan nan nan nan nan nan nan nan nan nan nan nan nan nan nan nan nan nan nan nan nan nan nan nan nan nan nan nan 284 283 283 283 283 280 279 279 277 277 279 278 276 276 275 275 277 277 276 275 275 273 271 268 266 267 269 268 267 272 275 278 275 269 267 268
304 300 291 289 293 295 297 298 297 296 295 nan nan nan nan nan nan nan nan nan nan nan nan nan nan nan nan nan nan nan nan nan nan nan nan nan nan nan nan nan nan nan nan nan nan nan nan nan nan nan nan 283 283 282 280 280 279 278 278 277 276 275 274 274 275 276 276 275 274 272 272 271 269 268 267 267 267 267 268 273 274 270 265 260 259
304 301 302 300 301 302 301 297 294 nan nan nan nan nan nan nan nan 294 nan nan 299 nan nan nan nan nan nan nan nan nan nan nan nan nan nan nan nan nan nan nan nan nan nan nan nan nan nan nan nan nan nan 284 283 282 282 280 278 276 275 274 276 275 274 274 275 276 275 274 272 271 269 269 269 269 266 264 264 264 266 267 266 260 259 258 255
303 305 304 301 295 292 294 298 298 295 nan nan nan nan 298 294 293 291 nan nan nan nan nan nan nan nan nan nan nan nan nan nan nan nan nan nan nan nan nan nan nan nan nan nan nan nan nan nan nan nan nan nan 284 284 283 nan nan nan nan 274 276 275 274 274 274 275 274 272 272 270 268 268 268 268 266 264 262 262 261 261 263 264 264 261 258
305 302 299 298 299 295 292 292 293 295 294 nan nan 293 290 291 295 nan nan nan 302 nan nan nan nan nan nan nan nan nan nan nan nan nan nan nan nan nan nan nan nan nan nan nan nan nan nan nan nan nan nan nan 284 282 nan nan nan nan nan 273 276 274 273 273 274 274 273 272 271 270 269 268 266 266 266 266 263 261 260 261 260 261 263 263 262
305 308 306 305 306 307 305 300 295 295 297 298 300 296 296 301 300 nan nan 302 300 nan nan nan nan nan nan nan nan nan nan nan nan nan nan nan nan nan nan nan nan nan nan nan nan nan nan nan nan nan nan nan nan nan nan nan nan nan nan 275 276 275 273 273 272 273 273 272 271 270 268 267 266 265 264 263 261 259 258 258 258 260 261 262 263
281 287 291 290 292 295 297 295 297 299 298 301 298 298 299 299 nan nan nan nan nan nan nan nan nan nan nan nan nan nan nan nan nan nan nan nan nan nan nan nan nan nan nan nan nan nan nan nan nan nan nan nan nan nan nan nan 278 275 276 278 277 275 274 273 272 272 271 271 270 270 268 266 264 263 263 262 261 256 258 258 257 257 258 259 259
284 283 286 289 291 291 294 297 298 297 299 298 297 298 298 nan nan nan nan nan nan nan nan nan nan nan nan nan nan nan nan nan nan nan nan nan nan nan nan nan nan nan nan nan nan nan nan nan nan nan nan nan nan 284 nan nan nan nan nan 278 277 276 275 274 272 271 270 270 270 270 268 266 264 262 263 263 261 258 258 257 257 257 256 257 258
287 290 290 291 293 295 295 294 295 297 295 293 296 298 298 nan nan nan nan nan nan nan nan nan nan nan nan nan nan nan nan nan nan nan nan nan nan nan nan nan nan nan nan nan nan nan nan nan nan nan nan nan nan nan nan nan nan nan nan 279 277 276 274 274 273 271 270 269 268 267 267 266 264 261 261 259 259 257 255 255 255 255 255 256 257
282 284 287 288 289 288 290 294 297 299 296 296 298 nan nan nan nan nan nan nan nan nan nan nan nan nan nan nan nan nan nan nan nan nan nan nan nan nan nan nan nan nan nan nan nan nan nan nan nan nan nan nan nan nan nan nan nan nan nan 280 279 276 275 273 272 271 269 269 268 267 266 266 265 262 259 258 257 258 258 255 253 254 254 254 254
284 284 284 284 286 291 295 297 297 296 296 298 nan nan nan 295 nan nan nan nan nan nan nan nan nan nan nan nan nan nan nan nan nan nan nan nan nan nan nan nan nan nan nan nan nan nan nan nan nan nan nan nan nan nan nan nan nan nan nan nan 281 280 278 nan 273 271 270 268 267 266 265 264 264 264 263 261 260 259 259 258 258 258 257 253 249
280 283 284 284 285 286 287 287 292 298 nan nan nan nan nan nan nan nan nan nan nan nan nan nan nan nan nan nan nan nan nan nan nan nan nan nan nan nan nan nan nan nan nan nan nan nan nan nan nan nan nan nan nan nan nan nan nan nan nan nan nan nan nan nan nan nan nan 270 268 266 264 263 261 261 262 262 261 259 258 257 257 257 254 251 252
284 282 284 288 288 288 291 295 nan nan nan nan nan nan nan 300 nan nan nan nan nan nan nan nan nan nan nan nan nan nan nan nan nan nan nan nan nan nan nan nan nan nan nan nan nan nan nan nan nan nan nan nan nan nan nan nan nan nan nan nan nan nan nan nan nan nan nan nan 269 266 264 259 258 257 257 257 256 255 255 257 258 257 255 254 nan
283 287 289 288 nan nan nan nan nan nan nan nan nan nan nan nan nan nan nan nan nan nan nan nan nan nan nan nan nan nan nan nan nan nan nan nan nan nan nan nan nan nan nan nan nan nan nan nan nan nan nan nan nan nan nan nan nan nan nan nan nan nan nan nan nan nan nan nan 271 268 266 nan nan nan nan 255 254 255 256 255 255 nan nan nan nan
nan nan nan nan nan nan nan nan nan nan nan nan nan nan 300 300 nan nan nan nan nan nan nan nan nan nan nan nan nan nan nan nan nan nan nan nan nan nan nan nan nan nan nan nan nan nan nan nan nan nan nan nan nan nan nan nan nan nan nan nan nan nan nan nan nan nan nan 275 nan nan nan nan nan nan nan nan 251 254 257 256 257 257 256 nan nan
nan nan nan nan nan nan nan nan nan nan nan 295 nan nan nan nan nan nan nan nan nan nan nan nan nan nan nan nan nan nan nan nan nan nan nan nan nan nan nan nan nan nan nan nan nan nan nan nan nan nan nan nan nan nan nan nan nan nan nan nan nan nan nan nan 269 269 266 265 269 271 270 nan nan nan nan nan nan nan nan nan nan nan nan nan nan
nan nan nan nan nan nan nan nan nan nan nan nan nan nan nan nan nan nan nan nan nan nan nan nan nan nan nan nan nan nan nan nan nan nan nan nan nan nan nan nan nan nan nan nan nan nan nan nan nan nan nan nan nan nan nan nan nan nan nan nan nan nan nan 268 270 270 269 270 272 273 273 nan nan nan nan nan 251 248 246 246 246 247 250 252 253
nan nan nan nan nan nan nan nan nan nan nan nan nan nan nan nan nan nan nan nan nan nan nan nan nan nan nan nan nan nan nan nan nan nan nan nan nan nan nan nan nan nan nan nan nan nan nan nan nan nan nan nan nan nan nan nan nan nan nan nan nan nan 280 nan nan 272 270 269 269 271 274 272 268 264 262 258 254 250 247 245 247 247 248 250 251
nan nan nan nan nan nan nan nan nan nan nan nan nan nan nan nan nan nan nan nan nan nan nan nan nan nan nan nan nan nan nan nan nan nan nan nan nan nan nan nan nan nan nan nan nan nan nan nan nan nan nan nan nan nan nan nan nan nan nan nan nan nan 281 278 274 nan 262 264 267 271 273 271 270 265 258 253 250 246 243 245 246 246 247 249 251
nan nan nan nan nan nan nan nan nan nan nan nan nan nan nan nan nan nan nan nan nan nan nan nan nan nan nan nan nan nan nan nan nan nan nan nan nan nan nan nan nan nan nan nan nan nan nan nan nan nan nan nan nan nan nan nan nan nan nan nan nan nan nan 287 277 265 269 270 272 273 275 275 270 265 258 253 247 246 244 244 246 247 248 247 249
nan nan nan nan nan nan nan nan nan nan nan nan nan nan nan nan nan nan nan nan nan nan nan nan nan nan nan nan nan nan nan nan nan nan nan nan nan nan nan nan nan nan nan nan nan nan nan nan nan nan nan nan nan nan nan nan nan nan nan nan nan nan nan nan nan 276 279 nan 278 275 272 271 268 264 257 250 247 247 247 246 245 245 247 250 250